This is the latest recevied weather packets stored in our database for station/object SV9TNF-2. If no packets are shown the sender has not sent any weather packets the latest 10 day(s).
| Time | Temp. | Humidity | Pressure | Rain* | Wind** | Luminosity | Snow |
|---|---|---|---|---|---|---|---|
| 1777680935 | 14.44° C | 81% | 1021.7 hPa | 0 mm | 6.71 m/s, 68° | - | - |
| 1777680635 | 14.44° C | 80% | 1021 hPa | 0 mm | 6.26 m/s, 102° | - | - |
| 1777680335 | 14.44° C | 81% | 1021 hPa | 0 mm | 7.6 m/s, 95° | - | - |
| 1777680034 | 15° C | 78% | 1021.7 hPa | 0 mm | 8.94 m/s, 111° | - | - |
| 1777679735 | 14.44° C | 76% | 1021.7 hPa | 0 mm | 4.02 m/s, 78° | - | - |
| 1777679435 | 15° C | 75% | 1021.7 hPa | 0 mm | 4.47 m/s, 108° | - | - |
| 1777679135 | 15.56° C | 74% | 1021.7 hPa | 0 mm | 4.02 m/s, 89° | - | - |
| 1777678834 | 15.56° C | 73% | 1021.7 hPa | 0 mm | 12.96 m/s, 88° | - | - |
| 1777678534 | 15.56° C | 75% | 1021.7 hPa | 0 mm | 10.28 m/s, 65° | - | - |
| 1777678234 | 15.56° C | 74% | 1021.7 hPa | 0 mm | 7.6 m/s, 95° | - | - |
| 1777677934 | 15.56° C | 75% | 1021.7 hPa | 0 mm | 4.92 m/s, 125° | - | - |
| 1777677634 | 15.56° C | 74% | 1021.7 hPa | 0 mm | 6.26 m/s, 90° | - | - |
| 1777677334 | 15.56° C | 74% | 1021.7 hPa | 0 mm | 7.15 m/s, 86° | - | - |
| 1777677036 | 15.56° C | 75% | 1022 hPa | 0 mm | 8.49 m/s, 60° | - | - |
| 1777676734 | 15.56° C | 74% | 1022 hPa | 0 mm | 10.28 m/s, 90° | - | - |
| 1777676434 | 15.56° C | 75% | 1022 hPa | 0 mm | 10.73 m/s, 110° | - | - |
| 1777676133 | 16.11° C | 75% | 1022 hPa | 0 mm | 9.83 m/s, 74° | - | - |
| 1777675833 | 15.56° C | 74% | 1022 hPa | 0 mm | 8.05 m/s, 88° | - | - |
| 1777675533 | 15.56° C | 72% | 1022 hPa | 0 mm | 6.71 m/s, 78° | - | - |
| 1777675233 | 15.56° C | 72% | 1022 hPa | 0 mm | 6.71 m/s, 69° | - | - |
| 1777674933 | 15.56° C | 74% | 1022 hPa | 0 mm | 11.18 m/s, 83° | - | - |
| 1777674633 | 15.56° C | 74% | 1022 hPa | 0 mm | 8.49 m/s, 88° | - | - |
| 1777674335 | 16.11° C | 75% | 1022 hPa | 0 mm | 8.05 m/s, 76° | - | - |
| 1777674033 | 15.56° C | 71% | 1022.4 hPa | 0 mm | 6.26 m/s, 74° | - | - |
| 1777673732 | 15.56° C | 73% | 1022.4 hPa | 0 mm | 6.26 m/s, 73° | - | - |
* Rain latest hour (hover to see other rain measurements)
** Current wind speed in m/s (hover to see current wind gust speed)